Location: Demre
(36.2444°N, 29.9850°E)
Time: 04:59:27
(UTC+00:00)

Cosmos 1805 - Pass Details

Date: 11 March 2026
Orbit: 416 x 420 km, 82.5° (Epoch: 21 April)

Event Time Altitude Azimuth Distance (km) Brightness Sun altitude
Rises 17:36:57 0° 203° (SSW) 2,383 6.7 -19.5°
Reaches altitude 10° 17:39:05 10° 212° (SSW) 1,522 5.8 -19.9°
Maximum altitude 17:42:09 35° 280° (W) 713 4.5 -20.6°
Drops below altitude 10° 17:45:15 10° 348° (NNW) 1,531 5.9 -21.2°
Sets 17:47:25 0° 358° (N) 2,401 6.8 -21.6°
